Date String (YYYY-MM-DD hh:mm:ss) UTC,Instrument flags,Ambient pressure (hPa),Sample flow (lpm),Bypass flow (lpm),Sample temperature (°C),Ambient temperature (°C),ASC tube jacket temperature (°C),LED temperature (°C),Box temperature (°C),Sample RH (%),Span deviation,Mass concentration (μg/m³),Mass concentration (μg/m³),Mass concentration (μg/m³)
DateTimeUTC,F1_M11,P_M11,Q1_M11,Q2_M11,T1_M11,T2_M11,T3_M11,T4_M11,T5_M11,U1_M11,ZSPAN_M11,X0_M11,X2_M11,X1_M11
2021-10-25 23:00:00,,0817.9,4.99,0.00,30.0,28.7,00.0,39.1,31.9,13.6,0001.4,0026.35,0007.01,0005.33
2021-10-25 23:01:00,,0818.0,5.00,0.00,30.1,28.9,00.0,39.1,31.9,13.6,0002.7,0025.27,0007.03,0005.37
2021-10-25 23:02:00,,0817.9,5.01,0.00,30.1,29.0,00.0,39.1,32.0,13.6,0003.1,0024.98,0007.10,0005.41
2021-10-25 23:03:00,,0817.9,5.00,0.00,30.1,29.2,00.0,39.1,32.0,13.6,0002.5,0025.30,0007.20,0005.45
2021-10-25 23:04:00,,0817.8,5.00,0.00,30.2,29.3,00.0,39.1,32.0,13.6,0003.3,0024.26,0007.21,0005.49
2021-10-25 23:05:00,,0817.8,4.99,0.00,30.2,29.4,00.0,39.1,32.1,13.6,0002.7,0023.00,0007.14,0005.51
2021-10-25 23:06:00,,0817.8,5.02,0.00,30.3,29.5,00.0,39.2,32.1,13.6,0003.2,0022.23,0007.11,0005.53
2021-10-25 23:07:00,,0817.9,5.00,0.00,30.3,29.6,00.0,39.2,32.2,13.5,0003.2,0020.87,0007.12,0005.55
2021-10-25 23:08:00,,0817.8,4.98,0.00,30.4,29.6,00.0,39.2,32.3,13.5,0003.1,0020.47,0007.17,0005.55
2021-10-25 23:09:00,,0817.8,5.01,0.00,30.4,28.3,00.0,39.2,32.0,13.5,0002.9,0020.51,0007.24,0005.57
2021-10-25 23:10:00,,0817.7,5.00,0.00,30.2,26.2,00.0,39.2,31.6,13.6,0002.0,0019.26,0007.30,0005.62
2021-10-25 23:11:00,,0817.7,4.99,0.00,30.1,25.9,00.0,39.2,31.5,13.7,0001.4,0020.07,0007.38,0005.64
2021-10-25 23:12:00,,0817.7,5.00,0.00,30.0,26.3,00.0,39.1,31.4,13.8,0001.6,0020.98,0007.42,0005.66
2021-10-25 23:13:00,,0817.8,5.02,0.00,29.9,26.8,00.0,39.1,31.4,13.9,0000.9,0022.14,0007.41,0005.67
2021-10-25 23:14:00,,0817.7,5.01,0.00,29.9,27.3,00.0,39.0,31.5,13.9,0002.0,0021.63,0007.35,0005.68
2021-10-25 23:15:00,,0817.7,5.00,0.00,29.9,27.7,00.0,39.0,31.6,13.9,0002.2,0023.64,0007.39,0005.69
2021-10-25 23:16:00,,0817.7,5.00,0.00,29.9,28.0,00.0,39.0,31.7,13.9,0001.9,0024.46,0007.46,0005.69
2021-10-25 23:17:00,,0817.7,5.00,0.00,29.9,28.3,00.0,39.0,31.7,13.9,0001.5,0024.70,0007.43,0005.66
2021-10-25 23:18:00,,0817.7,5.00,0.00,30.0,28.6,00.0,39.0,31.8,13.9,0002.3,0025.39,0007.38,0005.64
2021-10-25 23:19:00,,0817.7,4.99,0.00,30.0,28.8,00.0,39.0,31.9,13.9,0002.8,0025.16,0007.29,0005.63
2021-10-25 23:20:00,,0817.7,4.99,0.00,30.0,28.9,00.0,39.0,31.9,13.9,0003.1,0026.06,0007.23,0005.62
2021-10-25 23:21:00,,0817.7,5.01,0.00,30.1,29.1,00.0,39.0,32.0,14.0,0003.7,0028.57,0007.19,0005.56
2021-10-25 23:22:00,,0817.8,5.02,0.00,30.1,29.2,00.0,39.1,32.0,13.9,0003.5,0029.08,0007.15,0005.52
2021-10-25 23:23:00,,0817.8,4.99,0.00,30.2,29.3,00.0,39.1,32.1,13.9,0003.1,0028.88,0007.13,0005.49
2021-10-25 23:24:00,,0817.7,5.00,0.00,30.2,29.4,00.0,39.1,32.1,13.9,0003.5,0028.33,0007.12,0005.47
2021-10-25 23:25:00,,0817.7,5.01,0.00,30.3,29.5,00.0,39.1,32.2,13.9,0003.2,0027.56,0007.11,0005.46
2021-10-25 23:26:00,,0817.6,5.00,0.00,30.3,29.5,00.0,39.2,32.2,13.8,0002.2,0026.89,0007.08,0005.46
2021-10-25 23:27:00,,0817.6,5.00,0.00,30.3,28.5,00.0,39.2,32.0,13.8,0002.0,0026.89,0007.10,0005.49
2021-10-25 23:28:00,,0817.6,5.00,0.00,30.2,26.2,00.0,39.2,31.6,13.9,0001.9,0027.23,0007.22,0005.52
2021-10-25 23:29:00,,0817.6,5.01,0.00,30.0,25.7,00.0,39.1,31.4,14.1,0001.9,0026.89,0007.31,0005.54
2021-10-25 23:30:00,,0817.6,5.00,0.00,29.9,26.2,00.0,39.1,31.3,14.1,0000.6,0028.62,0007.41,0005.58
2021-10-25 23:31:00,,0817.6,4.99,0.00,29.8,26.6,00.0,39.0,31.4,14.2,0000.2,0028.89,0007.54,0005.62
2021-10-25 23:32:00,,0817.6,5.00,0.00,29.8,27.1,00.0,39.0,31.4,14.2,-000.2,0027.15,0007.64,0005.68
2021-10-25 23:33:00,,0817.6,5.00,0.00,29.8,27.5,00.0,39.0,31.5,14.2,0000.0,0027.00,0007.70,0005.74
2021-10-25 23:34:00,,0817.6,5.01,0.00,29.8,27.9,00.0,39.0,31.6,14.2,0000.3,0027.21,0007.76,0005.78
2021-10-25 23:35:00,,0817.6,4.99,0.00,29.9,28.2,00.0,38.9,31.6,14.3,0000.2,0027.07,0007.88,0005.83
2021-10-25 23:36:00,,0817.7,5.00,0.00,29.9,28.5,00.0,38.9,31.7,14.3,0000.3,0027.20,0007.95,0005.88
2021-10-25 23:37:00,,0817.7,5.00,0.00,29.9,28.7,00.0,39.0,31.7,14.3,0000.7,0027.56,0007.96,0005.89
2021-10-25 23:38:00,,0817.7,4.99,0.00,30.0,28.8,00.0,39.0,31.8,14.2,0000.7,0027.04,0007.94,0005.88
2021-10-25 23:39:00,,0817.6,5.01,0.00,30.0,28.9,00.0,39.0,31.9,14.2,0000.6,0026.12,0007.89,0005.86
2021-10-25 23:40:00,,0817.7,5.00,0.00,30.0,29.1,00.0,39.0,31.9,14.2,0000.4,0026.12,0007.89,0005.84
2021-10-25 23:41:00,,0817.6,4.99,0.00,30.1,29.2,00.0,39.0,32.0,14.2,0001.7,0025.31,0007.85,0005.82
2021-10-25 23:42:00,,0817.6,5.01,0.00,30.1,29.3,00.0,39.0,32.0,14.2,0002.3,0026.23,0007.75,0005.80
2021-10-25 23:43:00,,0817.5,5.00,0.00,30.2,29.3,00.0,39.1,32.0,14.1,0001.9,0026.61,0007.68,0005.78
2021-10-25 23:44:00,,0817.5,5.00,0.00,30.2,29.4,00.0,39.1,32.1,14.0,0002.1,0026.10,0007.65,0005.74
2021-10-25 23:45:00,,0817.5,4.99,0.00,30.2,29.5,00.0,39.1,32.1,14.0,0001.8,0027.40,0007.60,0005.71
2021-10-25 23:46:00,,0817.5,4.99,0.00,30.3,28.8,00.0,39.1,32.0,13.9,0002.8,0029.87,0007.52,0005.69
2021-10-25 23:47:00,,0817.6,5.00,0.00,30.2,26.4,00.0,39.1,31.6,14.1,0000.9,0031.27,0007.59,0005.71
2021-10-25 23:48:00,,0817.5,5.01,0.00,30.0,25.5,00.0,39.1,31.3,14.3,0000.0,0030.88,0007.74,0005.77
2021-10-25 23:49:00,,0817.6,5.00,0.00,29.9,25.8,00.0,39.1,31.3,14.3,0000.9,0031.40,0007.91,0005.86
2021-10-25 23:50:00,,0817.6,4.99,0.00,29.8,26.4,00.0,39.0,31.3,14.4,0000.0,0032.35,0008.05,0005.97
2021-10-25 23:51:00,,0817.5,5.00,0.00,29.8,26.9,00.0,38.9,31.3,14.5,0000.0,0034.50,0008.25,0006.07
2021-10-25 23:52:00,,0817.6,4.99,0.00,29.8,27.3,00.0,38.9,31.4,14.5,0003.2,0035.68,0008.46,0006.17
2021-10-25 23:53:00,,0817.6,5.01,0.00,29.8,27.7,00.0,38.9,31.5,14.4,0000.0,0034.49,0008.64,0006.28
2021-10-25 23:54:00,,0817.6,5.00,0.00,29.8,28.0,00.0,38.9,31.6,14.5,0000.0,0034.25,0008.85,0006.41
2021-10-25 23:55:00,,0817.6,5.01,0.00,29.8,28.3,00.0,38.9,31.6,14.5,0000.0,0034.63,0009.07,0006.55
2021-10-25 23:56:00,,0817.6,4.99,0.00,29.8,28.5,00.0,38.9,31.7,14.4,0000.0,0033.18,0009.34,0006.70
2021-10-25 23:57:00,,0817.6,4.99,0.00,29.9,28.6,00.0,38.9,31.7,14.4,0000.0,0032.20,0009.62,0006.84
2021-10-25 23:58:00,,0817.6,5.00,0.00,29.9,28.8,00.0,38.9,31.7,14.3,0000.0,0031.82,0009.76,0006.91
2021-10-25 23:59:00,,0817.6,5.01,0.00,29.9,28.9,00.0,38.9,31.8,14.2,0000.0,0033.12,0009.91,0006.95
